Regional Weather Roundup
Issued by NWS Newport/Morehead, NC

Current Version | Previous Version | Graphics & Text | Print | Product List | Glossary Off
Versions: 1 2 3 4 5 6 7 8 9 10 11 12 13 14 15 16 17 18 19 20 21 22 23 24 25 26 27 28 29 30 31 32 33 34 35 36 37 38 39 40 41 42 43 44 45 46 47 48 49 50

000
ASUS42 KMHX 070512
RWRMHX
WEATHER ROUNDUP FOR EASTERN NORTH CAROLINA
NATIONAL WEATHER SERVICE NEWPORT/MOREHEAD CITY NC
1200 AM EST WED DEC 07 2016

NOTE: "FAIR" INDICATES FEW OR NO CLOUDS BELOW 12,000 FEET
WITH NO SIGNIFICANT WEATHER AND/OR OBSTRUCTIONS TO VISIBILITY

NCZ015>017-031-032-045>047-102-103-070600-
NORTH COAST

CITY           SKY/WX    TMP DP  RH WIND       PRES   REMARKS
EDENTON        CLOUDY    48  45  89 NW15      29.78S
ELIZABETH CITY CLOUDY    47  46  97 W16G25    29.75R
KITTY HAWK     CLOUDY    49  49 100 W16G28    29.70R
MANTEO         CLOUDY    48  47  97 NW22G29   29.73R

$$

NCZ045>047-081-094-103-104-070600-
CENTRAL COAST

CITY           SKY/WX    TMP DP  RH WIND       PRES   REMARKS
FRISCO         CLOUDY    51  47  86 W16G30    29.75R

$$

NCZ095-097-098-100-101-070600-
SOUTHERN COAST

CITY           SKY/WX    TMP DP  RH WIND       PRES   REMARKS
BEAUFORT       MOCLDY    51  48  89 W18       29.81R
CEDAR ISLAND   NOT AVBL
JACKSONVILLE   NOT AVBL
PINEY ISLAND   PTCLDY   N/A N/A N/A W22G30    29.79R
WILMINGTON     CLOUDY    51  49  92 NW9       29.87R


$$

NCZ011>013-027>030-043-044-078>080-089-090>093-098-070600-
COASTAL PLAIN

CITY           SKY/WX    TMP DP  RH WIND       PRES   REMARKS
AHOSKIE        CLOUDY    43  42  96 NW3       29.84R
CLINTON        CLOUDY    46  45  96 W6        29.88R
ELIZABETHTOWN  NOT AVBL
GOLDSBORO      CLOUDY    44  44 100 W9        29.84R
GREENVILLE     CLOUDY    45  43  93 NW10G17   29.86R
HAVELOCK       MOCLDY    50  45  83 W18G25    29.82R
KENANSVILLE    CLOUDY    46  45  93 W5        29.86R
KINSTON          N/A     45  43  93 W7        29.86R
NEW BERN       CLOUDY    48  45  89 W12G18    29.84R
RICHLANDS      CLOUDY    47  45  93 W5        29.86R
ROCKY MOUNT    CLOUDY    43  43 100 NW9       29.85R
WASHINGTON     CLOUDY    45  43  93 NW6G16    29.82R
WHITEVILLE     CLOUDY    50  48  92 W3        29.88S

$$

AMZ130-135-150-152-154-156-158-170-250-252-270-ANZ085-086-088-633-658-670-070600-
MARINE OBSERVATIONS

STATION/POSITION TIME  TEMP    WIND        PRES    WAVE   SWELL
                       AIR SEA DIR/SP/G            HT/PER HT/PER
                 (UTC) (F)     (DEG/KT/KT) (MB)    (FT/S) (FT/S)
CHESAPEAKE LIGHT NOT AVBL
64 E VA BEACH    0450   55 60  280/ 27/ 37 1001.1   10/ 9   7/ 9
DUCK             0448   49 55  290/ 20/ 28 1005.7
2 E DUCK         NOT AVBL
OREGON INLET     0442   50 57  280/ 19/ 28 1005.9
13E OREGON INLT  NOT AVBL
HATTERAS CG      0448   52 61  280/ 27/ 33 1007.0
DIAMOND BUOY     0450   60 74  290/ 31/ 37 1006.4    9/ 6   3/15
CAPE LOOKOUT     0400   55     290/ 22/ 25 1008.1
BEAUFORT LAB     0448   51 56  300/ 12/ 14 1008.4
30 SE NEW RVR IN 0408   54 70  300/ 23/ 29 1009.5
30 SE NEW RVR IN NOT AVBL
27 SE WRIGHTSVLE 0408   57 68  280/ 19/ 25 1009.6
5 SE WRIGHTSVLE  0408   52 62  290/ 19/ 31 1009.6
225 S CAPE HAT   0450   76 74  250/ 23/ 27 1009.2   12/ 9
41 SE CHARLESTON 0450   62 74  320/ 14/ 16 1011.7    5/ 5   3/ 9

$$



USA.gov is the U.S. government's official web portal to all federal, state and local government web resources and services.